Location: Kunchanapalle
(16.4623°N, 80.6176°E)
Time: 14:26:42
(UTC+00:00)

Ariane Rocket - Pass Details

Date: 13 August 2020
Orbit: 761 x 769 km, 98.7° (Epoch: 25 September)

Event Time Altitude Azimuth Distance (km) Brightness Sun altitude
Exits shadow 13:41:42 12° 108° (ESE) 2,149 4.6 -9.6°
Maximum altitude 13:44:23 18° 73° (ENE) 1,819 4.5 -10.3°
Drops below altitude 10° 13:47:41 10° 32° (NNE) 2,292 5.3 -11.0°
Sets 13:50:40 0° 13° (NNE) 3,217 6.3 -11.7°
